| time (UTC) | temp C | wind direction | speed KPH | gust KPH | rain 1hr cm | rain 24hr cm | rain mn cm | humidity % | barometer mb |
| 20260507060610 | 16 | 270 | 12.9 | 17.7 | 0.00 | 0.00 | 0.00 | 52 | 1012.5 |
| 20260507055714 | 16 | 225 | 16.1 | 17.7 | 0.00 | 0.00 | 0.00 | 53 | 1012.5 |
| 20260507054610 | 15 | 180 | 6.4 | 8.0 | 0.00 | 0.00 | 0.00 | 56 | 1012.4 |
| 20260507053714 | 15 | 180 | 4.8 | 6.4 | 0.00 | 0.00 | 0.00 | 55 | 1012.1 |
| 20260507052610 | 15 | 225 | 6.4 | 8.0 | 0.00 | 0.00 | 0.00 | 55 | 1011.9 |
| 20260507051654 | 15 | 180 | 8.0 | 12.9 | 0.00 | 0.00 | 0.00 | 55 | 1011.6 |
| 20260507050610 | 15 | 180 | 12.9 | 16.1 | 0.00 | 0.00 | 0.00 | 56 | 1011.5 |
| 20260507045634 | 15 | 248 | 6.4 | 12.9 | 0.00 | 0.00 | 0.00 | 57 | 1011.7 |
| 20260507044610 | 15 | 225 | 8.0 | 11.3 | 0.00 | 0.00 | 0.00 | 56 | 1011.5 |
| 20260507043634 | 15 | 225 | 9.7 | 16.1 | 0.00 | 0.00 | 0.00 | 56 | 1011.3 |
| 20260507042300 | 14 | 225 | 9.7 | 14.5 | 0.00 | 0.00 | 0.00 | 57 | 1011.2 |
| 20260507041204 | 15 | 180 | 9.7 | 12.9 | 0.00 | 0.00 | 0.00 | 56 | 1010.9 |
| 20260507040140 | 15 | 180 | 8.0 | 11.3 | 0.00 | 0.00 | 0.00 | 56 | 1010.9 |
| 20260507035204 | 15 | 225 | 6.4 | 8.0 | 0.00 | 0.00 | 0.00 | 55 | 1010.8 |
| 20260507034120 | 15 | 180 | 11.3 | 12.9 | 0.00 | 0.00 | 0.00 | 56 | 1010.6 |
| 20260507033304 | 15 | 225 | 12.9 | 17.7 | 0.00 | 0.00 | 0.00 | 56 | 1010.6 |
| 20260507032140 | 15 | 225 | 9.7 | 12.9 | 0.00 | 0.00 | 0.00 | 57 | 1010.6 |
| 20260507031225 | 15 | 225 | 8.0 | 12.9 | 0.00 | 0.00 | 0.00 | 58 | 1010.8 |
| 20260507030241 | 15 | 225 | 8.0 | 11.3 | 0.00 | 0.00 | 0.00 | 60 | 1010.7 |
| 20260507025204 | 15 | 225 | 6.4 | 9.7 | 0.00 | 0.00 | 0.00 | 59 | 1010.8 |
| 20260507024201 | 15 | 225 | 8.0 | 11.3 | 0.00 | 0.00 | 0.00 | 58 | 1010.9 |
| 20260507023205 | 15 | 225 | 3.2 | 4.8 | 0.00 | 0.00 | 0.00 | 57 | 1010.8 |
| 20260507022140 | 15 | 270 | 4.8 | 6.4 | 0.00 | 0.00 | 0.00 | 58 | 1010.9 |
| 20260507020200 | 15 | 180 | 19.3 | 27.4 | 0.00 | 0.00 | 0.00 | 55 | 1010.5 |
| 20260507015145 | 15 | 248 | 17.7 | 24.1 | 0.00 | 0.00 | 0.00 | 55 | 1010.6 |
| 20260507014220 | 15 | 225 | 14.5 | 17.7 | 0.00 | 0.00 | 0.00 | 56 | 1010.4 |
| 20260507013145 | 15 | 270 | 17.7 | 24.1 | 0.00 | 0.00 | 0.00 | 55 | 1010.4 |
| 20260507012120 | 16 | 270 | 17.7 | 27.4 | 0.00 | 0.00 | 0.00 | 54 | 1010.5 |
| 20260507011204 | 16 | 225 | 17.7 | 22.5 | 0.00 | 0.00 | 0.00 | 54 | 1010.4 |
| 20260507010220 | 16 | 225 | 19.3 | 24.1 | 0.00 | 0.00 | 0.00 | 55 | 1010.4 |
| 20260507005144 | 16 | 225 | 9.7 | 16.1 | 0.00 | 0.00 | 0.00 | 54 | 1010.3 |
| 20260507004220 | 16 | 225 | 14.5 | 19.3 | 0.00 | 0.00 | 0.00 | 54 | 1010.4 |
| 20260507003204 | 16 | 225 | 12.9 | 17.7 | 0.00 | 0.00 | 0.00 | 54 | 1010.6 |
| 20260507002140 | 16 | 225 | 14.5 | 17.7 | 0.00 | 0.00 | 0.00 | 54 | 1010.9 |
| 20260507001244 | 16 | 225 | 14.5 | 17.7 | 0.00 | 0.00 | 0.00 | 54 | 1010.9 |
| 20260507000140 | 16 | 225 | 17.7 | 25.7 | 0.00 | 0.00 | 0.00 | 54 | 1010.9 |
| 20260506235144 | 16 | 180 | 24.1 | 29.0 | 0.00 | 0.00 | 0.00 | 54 | 1010.9 |
| 20260506234120 | 16 | 225 | 12.9 | 20.9 | 0.00 | 0.00 | 0.00 | 54 | 1011.0 |
| 20260506233144 | 16 | 180 | 17.7 | 24.1 | 0.00 | 0.00 | 0.00 | 54 | 1010.9 |
| 20260506232301 | 16 | 225 | 17.7 | 20.9 | 0.00 | 0.00 | 0.00 | 54 | 1011.1 |
| 20260506231144 | 16 | 225 | 11.3 | 12.9 | 0.00 | 0.00 | 0.00 | 54 | 1010.7 |
| 20260506230120 | 16 | 225 | 16.1 | 24.1 | 0.00 | 0.00 | 0.00 | 53 | 1010.8 |
| 20260506225145 | 17 | 270 | 11.3 | 17.7 | 0.00 | 0.00 | 0.00 | 53 | 1010.6 |
| 20260506224120 | 17 | 180 | 12.9 | 19.3 | 0.00 | 0.00 | 0.00 | 52 | 1010.8 |
| 20260506223144 | 17 | 315 | 17.7 | 20.9 | 0.00 | 0.00 | 0.00 | 52 | 1011.0 |
| 20260506222140 | 17 | 225 | 12.9 | 24.1 | 0.00 | 0.00 | 0.00 | 52 | 1010.9 |
| 20260506221145 | 17 | 225 | 14.5 | 19.3 | 0.00 | 0.00 | 0.00 | 49 | 1010.6 |
| 20260506220200 | 17 | 270 | 11.3 | 14.5 | 0.00 | 0.00 | 0.00 | 49 | 1010.7 |
| 20260506215204 | 17 | 315 | 8.0 | 9.7 | 0.00 | 0.00 | 0.00 | 49 | 1010.5 |
| 20260506214200 | 17 | 225 | 12.9 | 19.3 | 0.00 | 0.00 | 0.00 | 47 | 1010.5 |
| 20260506213144 | 18 | 225 | 12.9 | 17.7 | 0.00 | 0.00 | 0.00 | 47 | 1010.6 |
| 20260506212120 | 18 | 225 | 11.3 | 16.1 | 0.00 | 0.00 | 0.00 | 46 | 1010.7 |
| 20260506211225 | 18 | 225 | 19.3 | 24.1 | 0.00 | 0.00 | 0.00 | 46 | 1010.6 |
| 20260506210209 | 18 | 225 | 12.9 | 17.7 | 0.00 | 0.00 | 0.00 | 45 | 1010.4 |
| 20260506205144 | 18 | 225 | 16.1 | 19.3 | 0.00 | 0.00 | 0.00 | 45 | 1010.1 |
| 20260506204300 | 18 | 225 | 14.5 | 19.3 | 0.00 | 0.00 | 0.00 | 45 | 1010.0 |
| 20260506203204 | 18 | 225 | 14.5 | 20.9 | 0.00 | 0.00 | 0.00 | 45 | 1010.3 |
| 20260506202120 | 18 | 225 | 19.3 | 27.4 | 0.00 | 0.00 | 0.00 | 44 | 1009.9 |
| 20260506201224 | 18 | 203 | 17.7 | 24.1 | 0.00 | 0.00 | 0.00 | 44 | 1010.1 |
| 20260506200121 | 18 | 225 | 17.7 | 25.7 | 0.00 | 0.00 | 0.00 | 44 | 1010.0 |
| 20260506195145 | 18 | 225 | 11.3 | 16.1 | 0.00 | 0.00 | 0.00 | 43 | 1010.1 |
| 20260506194140 | 18 | 225 | 12.9 | 19.3 | 0.00 | 0.00 | 0.00 | 43 | 1010.5 |
| 20260506193205 | 19 | 180 | 16.1 | 22.5 | 0.00 | 0.00 | 0.00 | 43 | 1010.3 |
| 20260506192120 | 19 | 225 | 12.9 | 17.7 | 0.00 | 0.00 | 0.00 | 43 | 1010.3 |
| 20260506191204 | 19 | 225 | 12.9 | 20.9 | 0.00 | 0.00 | 0.00 | 43 | 1010.3 |
| 20260506190140 | 19 | 225 | 9.7 | 12.9 | 0.00 | 0.00 | 0.00 | 44 | 1010.1 |
| 20260506185144 | 19 | 225 | 19.3 | 25.7 | 0.00 | 0.00 | 0.00 | 42 | 1010.3 |
| 20260506184140 | 19 | 225 | 19.3 | 30.6 | 0.00 | 0.00 | 0.00 | 43 | 1009.9 |
| 20260506183205 | 19 | 225 | 19.3 | 27.4 | 0.00 | 0.00 | 0.00 | 42 | 1010.0 |
| 20260506182120 | 20 | 225 | 25.7 | 33.8 | 0.00 | 0.00 | 0.00 | 42 | 1009.7 |
| 20260506181144 | 20 | 180 | 24.1 | 33.8 | 0.00 | 0.00 | 0.00 | 42 | 1009.7 |
| 20260506180140 | 20 | 135 | 17.7 | 27.4 | 0.00 | 0.00 | 0.00 | 43 | 1009.8 |
| 20260506175204 | 20 | 225 | 20.9 | 25.7 | 0.00 | 0.00 | 0.00 | 43 | 1009.5 |
| 20260506174120 | 20 | 225 | 14.5 | 20.9 | 0.00 | 0.00 | 0.00 | 42 | 1009.6 |
| 20260506173204 | 20 | 180 | 19.3 | 24.1 | 0.00 | 0.00 | 0.00 | 42 | 1009.3 |
| 20260506172120 | 20 | 225 | 17.7 | 24.1 | 0.00 | 0.00 | 0.00 | 43 | 1009.3 |
| 20260506171205 | 20 | 225 | 17.7 | 24.1 | 0.00 | 0.00 | 0.00 | 43 | 1009.2 |
| 20260506170141 | 20 | 225 | 14.5 | 17.7 | 0.00 | 0.00 | 0.00 | 43 | 1009.5 |
| 20260506165224 | 20 | 270 | 12.9 | 17.7 | 0.00 | 0.00 | 0.00 | 42 | 1009.5 |
| 20260506164141 | 20 | 180 | 11.3 | 14.5 | 0.00 | 0.00 | 0.00 | 42 | 1009.5 |
| 20260506163144 | 21 | 225 | 12.9 | 16.1 | 0.00 | 0.00 | 0.00 | 42 | 1009.4 |
| 20260506162201 | 21 | 225 | 11.3 | 16.1 | 0.00 | 0.00 | 0.00 | 42 | 1009.5 |
| 20260506161145 | 21 | 225 | 11.3 | 12.9 | 0.00 | 0.00 | 0.00 | 42 | 1009.8 |
| 20260506160140 | 21 | 203 | 12.9 | 17.7 | 0.00 | 0.00 | 0.00 | 41 | 1009.8 |
| 20260506155145 | 21 | 135 | 16.1 | 17.7 | 0.00 | 0.00 | 0.00 | 41 | 1009.7 |
| 20260506154120 | 21 | 225 | 17.7 | 22.5 | 0.00 | 0.00 | 0.00 | 40 | 1009.7 |
| 20260506153144 | 21 | 225 | 14.5 | 20.9 | 0.00 | 0.00 | 0.00 | 41 | 1010.0 |
| 20260506152120 | 21 | 225 | 14.5 | 19.3 | 0.00 | 0.00 | 0.00 | 42 | 1009.8 |
| 20260506151204 | 21 | 225 | 14.5 | 19.3 | 0.00 | 0.00 | 0.00 | 41 | 1010.0 |
| 20260506150120 | 21 | 315 | 9.7 | 16.1 | 0.00 | 0.00 | 0.00 | 41 | 1009.9 |
| 20260506145204 | 21 | 225 | 12.9 | 17.7 | 0.00 | 0.00 | 0.00 | 41 | 1009.9 |
| 20260506144120 | 21 | 225 | 12.9 | 17.7 | 0.00 | 0.00 | 0.00 | 40 | 1009.9 |
| 20260506143144 | 21 | 225 | 16.1 | 24.1 | 0.00 | 0.00 | 0.00 | 40 | 1010.0 |
| 20260506142121 | 22 | 180 | 17.7 | 24.1 | 0.00 | 0.00 | 0.00 | 40 | 1010.0 |
| 20260506141145 | 22 | 270 | 19.3 | 27.4 | 0.00 | 0.00 | 0.00 | 39 | 1010.0 |
| 20260506140141 | 22 | 225 | 16.1 | 22.5 | 0.00 | 0.00 | 0.00 | 39 | 1009.7 |
| 20260506135144 | 22 | 225 | 20.9 | 29.0 | 0.00 | 0.00 | 0.00 | 33 | 1009.7 |
| 20260506134120 | 23 | 180 | 17.7 | 24.1 | 0.00 | 0.00 | 0.00 | 32 | 1009.9 |
| 20260506133144 | 25 | 180 | 27.4 | 29.0 | 0.00 | 0.00 | 0.00 | 32 | 1010.0 |
| 20260506132121 | 24 | 270 | 19.3 | 25.7 | 0.00 | 0.00 | 0.00 | 32 | 1009.9 |
| 20260506131224 | 23 | 270 | 17.7 | 24.1 | 0.00 | 0.00 | 0.00 | 32 | 1010.0 |
| 20260506130141 | 23 | 180 | 20.9 | 25.7 | 0.00 | 0.00 | 0.00 | 32 | 1010.0 |
| 20260506125144 | 22 | 225 | 17.7 | 22.5 | 0.00 | 0.00 | 0.00 | 33 | 1010.0 |
| 20260506124120 | 22 | 225 | 19.3 | 24.1 | 0.00 | 0.00 | 0.00 | 34 | 1010.1 |
| 20260506123144 | 23 | 225 | 24.1 | 30.6 | 0.00 | 0.00 | 0.00 | 32 | 1010.0 |
| 20260506122120 | 23 | 225 | 14.5 | 22.5 | 0.00 | 0.00 | 0.00 | 32 | 1010.1 |
| 20260506121144 | 23 | 270 | 17.7 | 20.9 | 0.00 | 0.00 | 0.00 | 32 | 1010.4 |
| 20260506120240 | 23 | 203 | 17.7 | 24.1 | 0.00 | 0.00 | 0.00 | 32 | 1010.3 |
| 20260506115145 | 23 | 225 | 12.9 | 22.5 | 0.00 | 0.00 | 0.00 | 32 | 1010.3 |
| 20260506114140 | 23 | 225 | 17.7 | 22.5 | 0.00 | 0.00 | 0.00 | 32 | 1010.4 |
| 20260506113204 | 22 | 225 | 20.9 | 24.1 | 0.00 | 0.00 | 0.00 | 32 | 1010.4 |
| 20260506112201 | 22 | 225 | 12.9 | 17.7 | 0.00 | 0.00 | 0.00 | 34 | 1010.4 |
| 20260506111224 | 22 | 225 | 20.9 | 24.1 | 0.00 | 0.00 | 0.00 | 33 | 1010.5 |
| 20260506110140 | 22 | 225 | 17.7 | 25.7 | 0.00 | 0.00 | 0.00 | 39 | 1010.7 |
| 20260506105205 | 22 | 180 | 19.3 | 30.6 | 0.00 | 0.00 | 0.00 | 39 | 1010.7 |
| 20260506104140 | 22 | 225 | 14.5 | 22.5 | 0.00 | 0.00 | 0.00 | 40 | 1010.8 |
| 20260506103204 | 21 | 225 | 17.7 | 24.1 | 0.00 | 0.00 | 0.00 | 40 | 1010.7 |
| 20260506102140 | 21 | 225 | 16.1 | 22.5 | 0.00 | 0.00 | 0.00 | 40 | 1010.9 |
| 20260506101145 | 21 | 248 | 11.3 | 20.9 | 0.00 | 0.00 | 0.00 | 41 | 1011.0 |
| 20260506100220 | 20 | 315 | 4.8 | 9.7 | 0.00 | 0.00 | 0.00 | 41 | 1011.2 |
| 20260506095144 | 20 | 225 | 19.3 | 25.7 | 0.00 | 0.00 | 0.00 | 41 | 1011.2 |
| 20260506094140 | 20 | 270 | 14.5 | 17.7 | 0.00 | 0.00 | 0.00 | 42 | 1011.3 |
| 20260506093244 | 20 | 270 | 12.9 | 16.1 | 0.00 | 0.00 | 0.00 | 42 | 1011.3 |
| 20260506092200 | 20 | 225 | 20.9 | 24.1 | 0.00 | 0.00 | 0.00 | 42 | 1011.3 |
| 20260506091144 | 20 | 225 | 27.4 | 33.8 | 0.00 | 0.00 | 0.00 | 42 | 1011.1 |
| 20260506090201 | 19 | 293 | 17.7 | 29.0 | 0.00 | 0.00 | 0.00 | 44 | 1011.1 |
| 20260506085144 | 18 | 225 | 27.4 | 33.8 | 0.00 | 0.00 | 0.00 | 44 | 1011.1 |
| 20260506084221 | 18 | 180 | 22.5 | 27.4 | 0.00 | 0.00 | 0.00 | 46 | 1011.2 |
| 20260506082843 | 18 | 225 | 19.3 | 22.5 | 0.00 | 0.00 | 0.00 | 45 | 1011.2 |
| 20260506081633 | 17 | 180 | 17.7 | 24.1 | 0.00 | 0.00 | 0.00 | 47 | 1011.1 |
| 20260506080729 | 17 | 225 | 17.7 | 25.7 | 0.00 | 0.00 | 0.00 | 47 | 1010.8 |
| 20260506072748 | 16 | 225 | 24.1 | 32.2 | 0.00 | 0.00 | 0.00 | 51 | 1010.9 |
| 20260506071713 | 16 | 225 | 24.1 | 35.4 | 0.00 | 0.00 | 0.00 | 51 | 1011.1 |
| 20260506070608 | 16 | 225 | 20.9 | 25.7 | 0.00 | 0.00 | 0.00 | 51 | 1010.9 |
| 20260506061633 | 15 | 225 | 24.1 | 30.6 | 0.00 | 0.00 | 0.00 | 53 | 1011.0 |